Regional Weather Roundup
Issued by NWS

Home | Current Version | Previous Version | Graphics & Text | Print | Product List | Glossary Off
Versions: 1 2 3 4 5 6 7 8 9 10 11 12 13 14 15 16 17 18 19 20 21 22 23 24 25 26 27 28 29 30 31 32 33 34 35 36 37 38 39 40 41 42 43 44 45 46 47 48 49 50

000
ASUS43 KTOP 080159
RWRKS

WEATHER ROUNDUP FOR KANSAS
NATIONAL WEATHER SERVICE GOODLAND KS
900 PM CDT TUE JUL 07 2015

NOTE:  "FAIR" INDICATES FEW OR NO CLOUDS BELOW 12,000 FEET WITH NO
SIGNIFICANT WEATHER AND/OR OBSTRUCTIONS TO VISIBILITY.

KSZ001>006-013>018-027>032-041>047-080300-
NORTHWEST KANSAS

CITY           SKY/WX    TMP DP  RH WIND       PRES   REMARKS
GOODLAND       PTCLDY    66  46  48 SE7       30.11S
HAYS           CLEAR     72  45  37 E8        30.07S
HILL CITY      PTCLDY    70  49  47 E7        30.09S
RUSSELL        CLEAR     67  51  56 NE7       30.06S
$$

KSZ061>065-074>080-084>089-080300-
SOUTHWEST KANSAS

CITY           SKY/WX    TMP DP  RH WIND       PRES   REMARKS
DODGE CITY     PTCLDY    67  45  45 E8        30.08R
ELKHART          N/A     70  48  45 E14         N/A
GARDEN CITY    PTCLDY    69  46  43 E10       30.08S
GREAT BEND     PTCLDY    68  48  49 E7        30.08R
LIBERAL        CLEAR     66  43  42 E9        30.10R
$$

KSZ066>073-081>083-090>101-080300-
SOUTHEAST KANSAS

CITY           SKY/WX    TMP DP  RH WIND       PRES   REMARKS
CHANUTE        CLOUDY    63  61  93 NE9       30.03S FOG
COFFEYVILLE    LGT RAIN  65  63  93 NE8       30.01S FOG
HUTCHINSON     CLOUDY    65  52  62 NE5       30.05S
MEDICINE LODGE   N/A     63  58  83 E3        30.05R
NEWTON         CLOUDY    63  54  72 NE7       30.07S
PARSONS        CLOUDY    65  64  97 VRB5      30.03S FOG
WICHITA INTL   LGT RAIN  64  57  78 NE10      30.04R
WICHITA JABRA  CLOUDY    63  58  83 NE10      30.04R
WICHITA MCCONL CLOUDY    64  59  82 NE13      30.03S
WINFIELD       LGT RAIN  63  61  93 E8        30.04R FOG
$$

KSZ007>012-019>026-033>040-048>060-102>105-080300-
NORTHEAST KANSAS

CITY           SKY/WX    TMP DP  RH WIND       PRES   REMARKS
CONCORDIA      CLEAR     65  50  58 E5        30.08R
EMPORIA        RAIN      64  61  90 NE5       30.05S FOG
LAWRENCE       CLOUDY    68  62  81 NE3       30.05S
MANHATTAN      MOCLDY    67  56  67 NE5       30.06S
OLATHE IND     LGT RAIN  66  64  93 S3        30.06S FOG
OLATHE EXE     LGT RAIN  64  63  96 CALM      30.05S FOG
SALINA         MOCLDY    70  52  52 E6        30.07R
TOPEKA BILLARD CLOUDY    68  61  78 NE3       30.05S
TOPEKA FORBES  CLOUDY    69  61  75 N3        30.05S
$$



USA.gov is the U.S. government's official web portal to all federal, state and local government web resources and services.